Wind_Speed
22 22 22 22 23 23 24 23 21 19 17 16 16 16 15 15 15 14 13 13 12 12 11 11 11 11 11 11 11 11 11 12 13 14 14 14 15 15 15 16 16 16 16 16 15 14 13 12 11 11 11 12 12 11 11 12 13 14 14 14 14 14 13 13 13 13 13 13 12 12 12 12 12 11 10 9 7 6 7 8 8 9 10 11 12
22 23 24 23 23 24 25 25 24 21 19 18 17 17 16 16 15 14 14 14 13 13 12 12 11 11 11 11 11 11 12 12 13 14 15 15 15 15 16 17 17 17 17 17 16 15 15 14 13 13 13 13 12 12 12 12 14 15 15 15 15 15 15 14 14 14 13 13 13 13 13 12 12 12 11 10 10 9 9 9 10 10 10 11 12
22 24 25 25 25 25 26 26 25 24 22 21 20 19 18 17 16 15 15 15 14 13 13 12 12 12 11 11 11 11 12 13 14 15 15 15 15 15 15 16 17 17 17 16 16 15 15 14 13 13 13 13 13 13 13 13 14 15 15 15 15 15 15 15 15 14 14 14 13 13 13 13 12 12 12 12 11 11 10 11 11 11 10 11 12
20 21 24 26 27 27 26 26 26 25 24 23 23 22 20 19 17 17 17 16 15 15 14 13 13 12 12 13 13 13 13 14 15 16 16 16 16 15 15 15 16 16 15 15 15 14 14 13 13 13 13 13 13 14 14 14 15 15 15 15 15 15 15 15 14 14 14 14 14 14 14 13 13 13 13 13 12 12 12 12 12 13 12 13 13
18 20 22 25 27 27 27 26 26 25 26 26 26 24 23 21 20 19 19 18 17 16 15 14 14 14 14 14 14 14 14 15 16 17 17 16 16 15 14 14 15 14 14 13 13 14 13 12 12 12 13 13 13 14 14 14 15 15 15 15 14 14 14 14 14 14 15 15 15 15 15 14 14 14 14 14 14 13 14 14 14 15 15 15 16
19 20 21 23 25 26 27 27 27 26 27 27 28 28 26 24 23 22 21 20 19 18 17 16 16 16 16 16 15 15 15 16 17 17 17 17 16 15 15 14 14 14 13 13 12 12 12 12 12 12 12 12 13 13 13 13 14 14 14 14 14 14 14 14 14 14 15 15 15 16 15 15 15 15 15 15 15 15 15 16 16 17 17 18 18
21 20 21 22 23 24 26 27 28 28 28 29 30 30 29 27 26 25 24 23 21 20 19 19 19 19 18 17 16 16 16 17 18 18 18 17 16 16 15 15 15 14 14 13 12 12 12 11 11 11 11 12 12 12 12 13 13 13 13 13 13 13 13 13 13 14 15 15 16 16 16 16 16 16 15 16 16 16 17 18 18 18 19 20 20
23 22 21 21 22 23 25 28 29 30 30 31 31 31 30 30 29 28 27 26 24 22 21 21 21 21 20 19 18 17 16 17 18 19 19 19 18 17 17 16 16 15 14 14 13 12 12 11 11 11 11 11 11 11 11 12 12 12 12 12 12 13 13 12 12 13 14 15 16 16 16 17 17 17 16 16 16 17 18 19 19 19 20 21 22
25 24 22 21 22 23 25 27 29 31 32 32 31 31 31 31 31 31 30 28 27 26 25 24 23 22 21 20 20 18 17 17 18 20 21 21 20 20 19 17 17 16 15 14 13 13 12 12 12 11 11 10 10 10 10 10 11 12 12 12 12 13 13 12 12 13 14 15 16 16 16 17 18 17 15 15 15 16 18 19 20 20 20 21 22
27 25 24 23 24 24 25 26 28 30 32 32 32 32 31 31 31 31 31 30 29 29 28 26 25 24 23 22 21 20 18 18 19 20 22 22 22 21 20 19 18 17 16 15 15 14 14 13 13 12 11 11 10 10 10 10 11 11 11 11 12 13 13 13 14 15 15 15 16 16 15 17 18 16 15 14 15 16 18 18 19 19 19 20 21
30 28 26 26 26 25 25 25 27 28 30 32 32 32 31 31 31 31 31 31 30 30 29 28 26 25 25 24 22 21 21 21 21 21 22 23 24 23 22 21 20 18 17 17 16 16 15 14 13 13 12 12 12 12 11 10 11 11 11 11 11 12 13 14 15 16 16 17 18 18 17 18 19 17 16 16 16 17 18 18 19 19 19 19 20
32 30 28 28 27 26 25 25 26 27 28 30 31 32 32 31 31 31 31 30 31 31 30 29 28 27 27 26 24 22 23 23 23 23 23 24 25 25 24 23 21 20 19 19 18 18 17 16 15 14 14 14 13 13 12 11 11 12 12 11 11 11 13 14 15 16 17 17 18 19 19 20 20 20 19 19 19 19 20 20 20 20 21 21 21
35 32 31 30 29 28 27 26 26 26 27 28 30 31 31 31 31 31 32 32 32 31 30 29 29 28 28 27 25 24 24 26 26 25 24 24 25 26 26 25 24 23 22 21 20 19 18 17 16 16 16 15 15 14 13 13 13 13 12 12 11 12 13 14 16 17 17 17 18 19 20 21 21 22 22 21 21 22 23 23 23 23 23 23 24
37 35 34 32 31 30 29 28 27 27 27 28 28 29 29 30 31 32 32 32 32 31 31 30 29 29 28 27 26 25 25 26 28 27 26 26 26 26 27 27 26 25 24 22 22 21 20 19 18 18 18 17 16 16 16 15 15 14 13 13 13 13 14 15 16 17 18 18 18 18 20 21 21 22 23 22 23 24 25 25 26 26 26 26 26
40 39 37 36 34 32 30 29 28 28 27 27 27 28 29 30 31 31 31 32 32 31 31 31 30 30 29 28 27 26 25 26 28 28 28 28 27 27 27 27 27 26 25 24 23 22 22 21 20 20 19 19 19 19 18 18 17 16 15 15 15 15 15 16 18 18 18 18 18 19 20 20 20 21 22 22 22 24 25 25 26 28 28 28 28
43 42 41 39 37 35 32 31 29 29 28 27 26 26 28 29 30 31 31 31 32 32 31 31 31 31 30 29 28 26 26 27 27 27 28 29 29 28 27 27 28 28 27 26 25 24 24 23 22 22 21 21 21 21 21 21 19 18 17 17 17 17 17 19 20 20 20 19 19 19 20 21 20 20 22 22 23 23 24 24 26 29 28 28 28
46 44 43 42 40 38 35 33 31 30 29 28 26 25 26 28 29 30 31 31 31 31 31 31 31 31 31 30 29 28 28 28 28 27 27 28 29 28 28 27 27 28 29 29 29 27 26 25 25 24 23 23 24 24 24 24 22 21 21 20 19 18 19 21 23 22 22 21 21 21 21 22 22 22 23 24 24 24 24 24 26 28 28 28 29
48 46 45 44 42 40 38 35 33 31 30 28 26 26 25 26 27 28 29 30 31 31 31 31 31 31 31 30 29 29 29 30 30 28 28 28 28 27 27 27 27 27 29 31 31 31 29 28 27 26 25 26 27 28 28 26 25 25 24 23 22 20 21 24 25 24 23 23 22 22 22 22 24 24 25 26 26 25 25 25 26 27 27 27 28
50 48 47 46 45 43 40 38 35 33 31 30 28 27 27 26 26 26 27 28 30 31 31 31 31 31 31 30 30 29 30 30 30 29 29 29 28 27 27 27 27 27 28 30 32 33 32 31 30 29 28 29 31 31 31 29 28 28 27 26 23 22 25 27 26 25 24 24 23 22 22 23 24 25 26 27 27 27 27 26 26 26 26 26 27
53 52 49 47 47 45 43 41 38 36 33 32 31 30 30 29 28 26 25 25 26 28 29 30 30 30 30 30 29 29 29 30 30 30 30 30 29 28 27 26 26 26 27 29 31 33 34 34 34 33 32 32 34 35 34 32 31 31 30 28 25 25 27 29 27 26 26 24 23 23 23 24 25 26 27 28 29 29 29 28 27 27 26 26 27
57 53 49 47 46 46 45 43 40 38 36 35 36 35 33 32 31 29 27 26 25 25 26 27 28 29 30 30 29 28 28 29 30 30 30 30 29 29 28 26 26 27 28 28 30 31 33 34 36 36 36 36 37 38 37 36 34 33 32 29 27 28 29 29 27 27 26 25 25 24 24 25 26 26 27 28 29 29 29 29 28 28 28 28 28
57 53 50 50 47 45 45 45 43 41 40 39 39 38 36 35 34 32 30 29 27 26 25 25 24 25 26 27 27 28 29 29 30 30 30 30 30 29 28 26 27 28 28 28 29 29 31 33 35 37 39 40 40 41 40 39 38 36 34 32 30 30 30 28 27 27 26 25 25 25 26 26 26 26 27 28 29 29 29 29 29 30 30 29 29
56 54 52 53 51 47 46 47 46 45 44 43 41 40 38 37 36 35 34 33 31 29 27 26 25 24 23 22 23 25 27 29 30 30 30 30 30 29 28 28 29 29 28 28 28 29 31 32 34 37 39 41 42 43 44 44 42 39 37 36 34 33 32 30 28 27 27 27 26 26 27 28 28 27 28 29 29 30 30 30 30 30 30 30 29
53 53 52 54 54 51 49 48 49 48 47 46 44 41 40 39 38 37 37 36 34 32 30 29 28 25 23 22 21 22 24 26 28 29 30 30 30 29 28 29 30 30 29 28 29 30 31 33 35 37 39 41 42 43 45 46 45 42 42 41 39 36 34 32 31 30 29 29 29 29 30 30 30 29 30 30 30 31 32 31 30 30 29 28 29
52 51 52 54 55 54 52 51 51 51 49 48 47 44 43 42 40 39 39 38 37 35 34 32 30 28 26 24 22 22 23 24 25 26 27 28 28 28 28 30 31 31 30 29 30 31 32 33 35 37 39 40 41 42 43 45 45 44 45 44 42 40 38 36 35 34 33 32 32 32 32 33 33 32 31 31 32 33 33 32 30 29 28 28 28
55 53 53 54 55 54 54 54 55 54 52 50 49 47 46 45 44 42 41 40 38 37 36 35 33 31 29 27 25 25 25 24 24 25 26 26 26 27 28 30 30 31 30 30 31 32 32 34 35 37 38 39 40 41 42 43 44 45 44 44 43 43 43 42 40 37 36 36 36 35 35 36 36 34 33 33 34 34 33 31 30 29 29 29 29
56 55 53 54 55 55 54 55 57 57 55 52 50 49 49 49 48 46 44 42 40 38 38 38 37 35 33 31 30 28 27 25 24 24 25 26 26 27 28 29 29 30 30 31 32 34 35 35 35 36 36 37 37 38 39 42 44 44 44 43 42 43 44 45 44 42 40 38 38 38 38 38 37 36 35 35 35 34 32 31 30 29 29 29 29
57 56 54 54 55 54 53 54 56 57 56 55 52 51 51 52 52 50 47 45 42 40 39 39 39 38 36 35 34 33 30 26 24 24 27 28 28 29 29 29 30 31 32 32 34 36 37 36 35 35 35 34 34 34 35 38 41 43 43 43 42 42 43 44 43 42 41 40 39 39 39 39 37 37 36 37 36 34 32 31 30 29 30 29 28
57 58 57 57 57 54 50 51 54 56 56 56 55 53 52 52 54 53 51 48 45 42 41 40 39 39 38 38 37 35 31 27 27 29 30 30 29 30 31 32 32 33 34 36 37 38 37 34 33 33 34 34 33 32 32 34 37 39 40 41 42 42 43 43 42 41 41 39 38 38 38 38 38 37 37 36 35 33 31 31 30 30 29 28 27
56 58 59 60 60 56 52 50 51 53 54 54 54 54 53 52 53 55 53 50 47 45 44 42 40 39 39 39 39 37 33 32 33 35 34 32 30 31 31 33 35 36 37 38 39 38 36 33 32 32 32 33 33 32 32 34 36 36 37 38 40 41 43 43 42 40 39 38 37 37 38 38 38 37 37 36 34 33 32 32 32 30 29 27 27
58 59 60 62 62 59 56 53 51 52 53 53 53 54 55 53 54 55 54 52 50 48 47 45 43 41 40 40 40 38 36 35 37 38 37 35 33 32 32 33 36 38 40 41 40 38 35 33 32 32 32 32 31 31 32 34 35 35 35 35 36 38 41 42 42 41 41 40 38 38 38 38 37 37 36 35 34 34 34 35 34 32 29 28 27
60 60 61 63 64 61 59 58 55 54 54 53 53 54 55 54 55 55 54 53 52 51 50 47 45 44 42 42 41 40 38 37 39 40 40 39 36 35 35 36 39 42 44 44 43 39 36 34 34 34 33 32 30 30 32 34 34 34 34 35 35 36 38 40 42 43 42 41 39 38 38 38 38 37 37 37 37 37 37 37 36 34 31 29 28
60 59 59 61 63 61 59 58 56 53 52 53 52 50 50 52 55 56 54 53 53 54 53 50 47 46 45 44 43 42 40 39 40 42 43 42 41 40 40 41 42 45 46 46 45 42 38 37 36 36 35 33 31 31 32 33 33 34 34 34 35 36 37 40 42 43 42 40 39 38 38 38 39 40 41 41 40 40 41 40 39 37 34 32 31
59 56 56 57 57 55 52 52 52 51 51 52 52 49 49 51 54 55 54 54 55 55 54 53 51 49 48 47 46 44 43 43 43 44 45 45 45 45 45 45 44 45 46 47 46 45 42 40 39 39 38 36 34 33 33 33 34 34 34 34 35 37 38 40 42 41 40 39 38 38 39 40 42 44 44 44 44 45 44 43 42 40 37 35 32
59 58 56 55 54 51 49 48 47 47 49 51 52 52 52 52 53 54 54 55 56 57 56 55 54 53 52 51 50 48 46 46 47 48 48 49 49 49 49 49 47 45 45 46 47 47 45 42 41 41 41 39 37 35 34 34 34 34 34 34 36 37 38 40 40 40 39 39 39 40 41 42 44 45 45 45 45 45 45 44 41 38 37 38 36
61 61 60 58 56 54 52 50 48 48 50 53 55 55 55 55 55 54 54 54 55 57 58 58 58 57 56 55 53 52 50 50 51 51 52 52 53 53 53 52 50 48 47 47 48 49 48 45 43 43 43 41 39 37 36 35 35 36 36 36 37 37 37 38 39 38 39 40 40 41 42 43 43 44 45 45 44 43 43 42 38 34 35 38 37
64 64 64 62 60 58 57 55 54 52 53 55 57 58 58 57 57 55 54 54 54 55 57 58 60 60 59 58 56 55 55 55 55 55 54 53 54 55 55 54 53 52 51 50 50 51 51 50 46 44 44 43 40 39 38 37 37 37 38 38 37 37 37 37 38 39 40 41 42 42 42 42 43 44 44 43 41 40 40 40 40 40 40 38 35
70 68 68 67 66 63 61 60 59 57 55 56 58 60 59 59 58 57 55 54 55 56 56 57 59 61 61 60 60 59 59 59 58 57 56 55 55 55 55 55 55 56 55 54 54 54 54 54 52 49 46 44 43 42 41 40 39 38 39 39 38 37 37 38 38 39 40 42 43 44 43 42 44 46 43 41 41 42 42 42 44 46 44 41 38
70 71 71 71 70 68 65 63 61 59 57 56 57 59 60 60 59 57 56 54 54 56 57 57 58 60 62 63 63 62 62 61 60 59 59 59 59 58 58 58 57 57 56 56 56 56 56 57 56 54 50 47 45 45 44 43 42 40 40 40 39 38 38 38 39 40 42 44 45 45 45 45 46 44 39 37 37 37 37 37 39 39 38 38 41
65 68 70 70 71 70 68 66 64 61 59 57 56 57 59 60 59 58 56 55 54 54 56 57 58 59 60 63 64 64 63 62 61 61 61 62 62 61 59 59 58 58 57 58 59 58 57 57 58 57 54 50 49 48 48 47 45 43 41 41 40 39 39 39 39 41 43 44 46 47 46 47 48 43 37 35 35 32 30 31 32 32 31 34 38
64 64 65 66 67 67 66 65 63 61 58 56 54 54 56 58 60 59 58 56 54 54 55 57 58 58 59 61 62 63 63 62 61 61 62 63 63 62 60 60 59 59 60 62 62 57 54 55 55 55 54 53 53 53 52 50 47 45 44 43 41 40 40 39 39 41 43 45 49 49 46 46 45 41 37 36 34 30 30 33 35 35 35 36 38
69 66 65 64 63 63 62 61 60 60 59 56 54 53 54 56 58 60 60 57 56 55 55 55 56 56 57 57 59 61 61 61 60 61 62 63 63 62 61 60 59 59 61 64 63 58 55 55 55 55 57 58 57 57 57 54 50 47 47 45 43 41 40 39 40 42 44 47 50 51 49 48 45 39 35 34 33 30 30 32 35 38 40 39 38
73 71 69 67 64 63 62 61 60 60 60 59 56 55 54 55 56 59 60 59 57 56 55 54 53 53 52 52 53 55 56 57 58 59 60 61 61 60 59 59 59 59 59 61 62 61 60 58 55 55 58 61 61 60 60 57 53 50 50 48 45 43 41 41 42 44 45 48 52 53 52 49 44 36 31 31 33 32 31 31 33 36 38 37 37
73 72 72 71 70 68 66 66 65 64 63 63 61 58 56 55 55 57 60 61 59 56 55 53 51 51 50 49 50 51 52 53 54 56 58 58 58 57 56 56 57 58 58 58 59 62 63 61 58 56 57 60 62 63 62 59 55 54 53 51 49 46 43 42 44 46 47 49 52 52 47 42 40 37 34 33 33 33 33 33 34 36 37 38 40
76 74 73 73 74 73 71 71 70 69 68 68 67 63 59 57 55 56 60 62 60 57 55 53 51 50 49 48 49 51 53 53 54 55 57 56 55 55 54 54 55 56 57 58 58 58 59 59 59 59 59 61 63 64 62 60 58 56 54 54 53 50 47 45 46 48 50 51 53 52 47 42 41 40 40 38 35 33 34 35 37 38 39 40 41
79 77 75 74 75 76 75 74 73 71 70 70 70 68 64 61 58 57 59 63 62 58 55 54 52 51 49 47 48 50 53 55 55 55 57 57 56 55 54 54 55 55 55 55 55 54 53 54 57 60 62 63 64 64 63 62 60 57 56 56 55 53 50 48 47 49 49 49 48 47 45 45 46 46 44 40 36 34 34 36 38 40 41 42 42
79 78 77 75 75 77 78 77 76 74 72 71 71 70 69 66 62 59 59 62 63 61 58 55 53 51 48 46 47 50 53 55 56 56 57 57 58 57 55 54 54 53 52 52 51 51 52 54 57 59 61 62 63 63 63 62 60 58 56 55 54 54 53 52 52 51 49 48 47 46 45 45 46 44 40 38 36 36 36 38 40 42 43 43 44
77 78 78 77 77 77 79 79 79 78 76 74 73 73 72 70 67 63 61 62 63 64 63 61 58 54 50 48 49 51 53 55 57 58 58 59 59 58 57 55 54 54 53 53 54 54 55 57 58 58 59 61 63 63 62 62 63 62 61 59 57 56 55 54 53 51 50 51 50 48 44 40 39 38 38 38 38 37 37 39 42 44 45 45 45
75 75 76 78 78 78 79 80 81 80 79 78 76 76 75 73 70 68 66 64 64 64 66 66 64 62 58 55 53 53 54 55 55 57 60 60 60 59 58 57 56 55 55 56 57 57 57 57 57 57 57 58 60 60 60 61 64 66 66 65 61 58 55 53 51 50 52 52 50 47 47 49 49 46 44 40 38 38 41 45 47 46 45 44 43
72 73 74 76 77 79 80 81 82 81 81 80 79 79 79 77 74 72 71 69 66 65 65 66 66 66 64 60 57 55 56 56 56 57 59 61 61 61 60 58 57 57 58 58 59 59 59 57 56 56 57 59 61 61 61 61 63 64 65 66 65 62 60 60 59 60 61 60 53 47 47 49 47 42 38 36 38 42 45 45 43 42 41 42 43
66 68 69 72 75 78 80 81 82 82 82 81 81 82 82 82 80 77 75 73 70 67 66 66 66 65 65 63 60 58 57 58 59 59 59 60 61 62 61 59 58 59 60 60 60 60 60 59 57 56 57 60 63 63 62 63 63 64 65 67 66 61 55 53 50 46 43 42 40 37 36 36 36 36 39 41 43 44 43 42 42 44 46 47 48
Wind_Direction
205 209 211 210 207 207 206 206 207 206 203 200 202 203 201 202 203 198 195 195 194 191 188 187 188 189 188 188 187 187 187 186 185 186 186 186 188 191 194 198 201 202 204 205 204 202 205 206 201 196 198 198 194 196 199 195 194 195 194 197 201 202 203 205 206 207 209 211 213 215 219 224 230 236 244 253 265 279 286 296 313 325 333 340 343
199 204 208 210 210 210 210 209 208 207 205 203 206 209 208 209 208 205 204 202 199 197 192 189 190 193 195 193 191 190 191 191 189 187 186 185 187 192 196 198 202 205 208 211 209 205 205 209 209 200 196 200 200 200 204 203 199 198 196 198 201 203 205 207 209 210 212 216 218 220 224 229 234 239 245 250 258 268 278 291 304 314 322 327 330
198 201 204 207 209 211 212 211 210 209 207 206 208 210 212 213 211 210 211 209 206 204 199 194 193 195 198 198 197 195 195 195 193 188 185 185 186 191 195 198 201 205 209 212 213 211 207 206 209 207 201 199 201 203 207 209 206 203 201 200 202 205 206 209 212 214 216 221 224 226 231 236 240 245 250 254 258 264 270 278 286 294 304 311 316
198 201 203 206 209 211 212 212 212 211 209 209 210 211 212 214 213 213 215 213 212 210 205 201 199 196 198 200 201 201 199 198 196 191 187 185 184 186 190 194 196 200 204 208 212 214 212 207 205 207 207 204 203 205 207 211 212 210 207 206 206 208 210 212 215 218 222 226 229 233 237 242 247 252 257 262 266 269 272 276 280 286 294 300 306
194 198 202 205 209 211 212 212 212 212 212 212 213 213 212 213 214 216 217 216 215 213 209 207 205 202 203 204 203 204 203 202 199 195 191 188 185 184 185 187 188 190 192 198 204 208 210 210 206 205 207 207 207 208 209 212 215 215 214 213 213 214 217 220 222 224 228 232 235 239 243 247 253 258 263 269 274 276 280 284 288 292 297 299 302
193 197 201 204 206 209 212 213 211 211 212 213 216 216 214 213 213 216 218 219 218 216 212 210 209 209 209 208 208 207 207 205 203 200 197 193 190 187 185 186 186 186 187 189 195 200 201 203 205 206 208 209 210 211 213 215 218 219 220 220 220 222 225 228 230 231 235 239 242 245 249 253 258 264 268 274 280 283 285 289 292 295 299 301 302
195 197 200 202 203 205 208 211 212 212 212 213 215 217 216 215 214 215 218 220 220 219 216 214 213 214 214 212 212 211 210 209 207 204 201 198 195 192 190 189 188 188 189 189 191 195 195 196 199 204 207 210 212 214 216 219 221 223 224 225 226 229 234 237 239 241 244 247 249 252 255 258 263 270 275 280 285 288 290 292 293 295 299 302 304
197 198 199 200 202 203 204 206 209 212 213 214 216 217 217 217 216 217 218 220 221 221 220 218 218 218 217 216 216 215 214 213 211 207 205 203 200 198 196 194 193 192 193 194 195 197 198 198 199 201 205 209 212 215 218 222 225 227 228 229 231 235 240 243 245 247 251 254 256 259 261 264 269 275 280 284 287 289 291 293 297 300 303 306 309
201 201 200 199 201 203 204 205 207 210 213 216 217 218 218 219 219 220 220 220 221 222 222 222 221 221 221 220 219 218 217 217 216 212 209 207 206 204 202 199 198 197 196 198 201 203 204 205 206 206 208 211 213 217 220 222 226 231 232 233 237 241 244 247 250 252 255 257 261 264 267 270 275 280 284 287 288 288 290 292 295 300 304 308 311
204 204 204 203 204 204 205 206 207 210 212 215 218 219 219 220 222 223 224 223 223 224 224 224 223 224 224 223 221 218 217 220 221 218 215 212 211 209 207 205 203 202 201 201 204 207 210 213 216 216 216 216 217 220 223 225 230 236 237 238 242 246 249 251 253 255 257 259 262 267 269 272 279 285 287 288 289 288 289 292 294 298 303 307 310
204 206 208 209 209 208 208 208 209 211 213 215 217 219 220 221 222 224 226 227 227 227 227 226 225 225 226 226 223 219 217 220 222 222 220 218 216 214 212 211 209 207 206 205 206 209 213 217 221 223 223 223 224 226 229 231 236 242 244 244 247 252 255 256 256 257 259 261 265 268 270 271 279 287 287 285 286 286 287 291 294 296 299 302 306
205 205 209 213 214 213 212 212 212 212 213 215 217 219 219 220 221 223 225 227 228 230 230 229 228 227 228 229 226 222 219 220 223 223 223 222 221 219 217 215 214 212 210 210 210 212 214 217 220 223 224 228 230 231 232 234 239 246 252 254 256 258 260 262 264 264 264 264 266 269 270 272 278 284 285 282 282 283 284 286 289 291 292 295 299
206 206 209 213 216 216 215 215 216 215 216 217 218 219 220 220 221 222 223 225 228 229 230 230 229 229 230 230 229 226 223 223 224 224 224 224 224 223 222 219 217 216 215 215 215 215 216 218 221 222 225 228 230 231 231 233 236 241 249 255 257 258 260 263 266 269 269 269 269 270 273 275 278 281 284 284 283 282 283 284 285 286 287 289 292
207 206 209 212 215 217 217 216 218 219 219 219 221 222 222 222 223 223 224 226 228 229 229 229 229 230 230 231 231 229 227 226 227 226 226 226 226 226 225 223 221 219 219 219 219 219 220 221 224 226 228 229 231 231 232 234 236 237 242 247 251 252 255 259 263 267 270 273 275 275 277 280 281 281 284 286 284 283 284 284 285 285 284 285 287
210 208 210 212 214 218 219 218 220 222 222 223 224 225 225 225 226 226 227 227 228 229 229 229 229 229 229 230 230 230 230 230 231 230 230 230 230 229 228 227 225 223 222 224 224 224 223 223 226 229 231 233 234 235 235 236 237 239 241 245 249 251 255 258 262 266 270 274 278 280 282 287 289 288 289 289 286 284 285 286 285 285 285 286 286
213 211 212 213 213 216 218 220 221 224 226 226 227 228 229 229 229 229 228 229 229 229 230 230 230 230 230 230 230 230 232 234 234 234 234 234 235 234 232 230 228 226 225 225 226 227 227 226 227 230 233 236 239 240 240 240 240 241 243 245 248 252 256 259 262 266 270 274 278 281 285 290 293 294 294 293 291 289 288 286 284 285 287 289 289
216 214 215 216 215 216 217 219 222 224 227 229 230 231 232 233 233 232 232 231 231 231 231 231 231 232 232 232 232 231 232 235 236 236 236 237 238 239 238 236 233 230 228 227 227 229 229 228 229 230 232 236 240 242 242 242 242 243 244 245 247 249 254 258 260 264 268 272 276 281 285 289 292 293 293 294 294 295 294 290 287 288 290 290 290
218 216 216 218 218 217 217 219 222 225 228 229 230 232 234 235 236 235 235 234 234 233 233 233 233 235 235 236 235 234 235 237 238 239 239 240 240 240 241 240 239 237 235 232 230 230 231 231 231 231 232 235 239 242 242 242 243 244 246 246 247 250 252 254 257 261 265 269 273 278 282 285 287 289 290 291 292 294 295 294 293 293 293 291 290
220 219 218 218 219 219 217 217 219 223 226 228 229 231 233 235 236 237 237 237 237 237 236 236 236 237 238 239 239 239 239 242 243 244 245 245 244 242 242 241 241 242 241 240 238 235 234 234 234 233 233 235 238 241 243 242 242 244 246 246 247 251 254 254 256 260 263 266 269 272 274 277 280 283 286 287 289 290 291 292 293 295 296 294 292
222 221 220 219 220 220 219 216 217 219 222 224 225 227 230 232 235 236 237 239 240 241 240 239 239 240 240 241 242 242 242 244 247 248 249 250 250 248 246 243 242 243 243 243 243 241 239 238 237 237 236 236 239 242 244 244 243 244 246 246 246 250 254 257 259 261 263 266 268 269 270 271 273 276 279 282 285 287 289 291 292 294 295 295 293
222 221 222 223 223 223 222 219 217 218 220 222 224 225 227 230 233 234 235 237 240 243 245 243 242 242 243 244 244 244 244 245 247 248 249 251 253 252 251 249 246 245 244 243 244 245 244 243 241 240 240 239 240 243 245 245 246 246 247 247 247 248 252 256 260 263 265 269 271 272 272 272 272 273 275 278 282 285 288 290 292 292 292 292 292
222 221 223 226 226 226 226 223 219 218 220 222 224 225 227 229 231 232 234 235 236 239 244 246 247 246 246 247 247 247 247 246 246 247 248 250 252 253 254 253 251 248 246 245 245 246 247 247 246 244 243 242 243 245 246 247 248 249 250 250 249 250 252 255 259 264 268 271 273 275 277 276 276 277 279 280 283 286 289 290 290 291 290 290 291
223 221 223 225 226 226 227 226 223 221 221 223 225 226 227 229 230 232 233 234 235 235 238 242 245 247 248 249 249 248 249 249 248 248 248 249 250 252 253 254 254 253 250 248 248 247 247 248 249 249 248 247 246 246 248 249 249 250 252 252 252 252 253 255 258 264 268 271 274 276 277 278 279 280 281 282 285 289 290 290 291 291 290 289 289
225 224 224 225 225 226 227 227 225 223 223 224 225 226 228 229 230 232 233 234 235 235 236 238 240 243 245 248 249 249 249 250 251 251 251 250 251 251 252 253 254 254 254 252 251 250 250 249 249 250 250 250 249 249 250 251 251 251 253 254 254 254 255 256 258 261 266 270 273 276 277 278 280 280 281 284 287 289 290 292 294 295 293 290 288
225 225 225 224 224 226 229 229 228 225 224 225 225 226 228 230 231 232 234 235 235 235 236 237 238 239 240 242 246 249 249 250 251 253 254 255 255 255 254 254 254 254 255 255 255 254 254 253 252 252 252 252 253 253 254 255 254 253 253 254 256 257 257 257 256 259 263 268 271 274 276 277 278 280 282 285 286 287 290 293 295 295 293 290 289
223 224 224 222 223 224 227 230 230 227 225 225 225 226 228 231 232 233 234 234 234 234 235 236 237 237 237 238 240 244 249 252 253 254 256 258 259 259 257 256 257 256 254 254 255 256 256 256 256 256 255 255 255 256 257 258 258 257 256 255 256 257 258 258 257 257 260 264 269 272 274 275 278 281 283 284 285 287 290 293 293 292 291 290 290
221 223 224 222 221 221 224 228 229 228 227 226 226 226 228 229 231 233 234 234 235 234 234 235 235 235 235 235 235 237 242 248 253 256 258 258 258 258 258 259 261 260 257 255 254 255 254 255 256 258 260 261 261 261 261 262 262 262 261 259 257 257 257 259 259 259 260 262 265 268 271 274 277 280 282 282 284 287 289 290 289 289 289 290 291
221 223 224 223 220 220 223 227 229 228 227 227 227 227 228 229 230 231 232 233 234 234 235 235 235 235 235 234 235 235 235 239 246 253 255 256 256 256 257 257 258 258 258 257 256 255 254 255 258 262 266 268 270 271 270 269 268 267 266 264 262 260 259 260 262 262 262 262 262 264 267 271 274 276 278 281 283 286 287 286 286 287 288 289 290
222 224 225 224 221 222 226 228 228 228 228 228 227 227 228 230 230 229 230 232 233 235 236 235 235 235 235 235 236 235 234 234 238 242 245 248 251 254 255 256 255 254 255 256 256 257 258 260 263 266 269 271 273 275 275 275 275 273 271 269 266 264 264 264 265 264 264 263 261 261 263 267 270 272 275 278 281 282 283 283 283 284 286 287 287
226 226 226 225 224 226 229 229 229 229 228 228 228 228 229 231 229 227 227 230 232 234 236 236 235 235 236 236 236 236 233 232 235 239 241 244 247 251 255 258 259 257 256 255 255 257 260 263 265 267 269 271 273 274 275 275 276 277 277 275 272 269 267 266 265 264 263 262 259 258 260 264 267 270 272 275 277 278 279 281 282 282 283 283 284
228 227 227 226 226 227 229 230 230 229 227 227 228 229 231 231 228 225 225 227 230 232 235 236 236 236 236 237 237 236 234 232 235 239 242 243 245 248 253 257 260 261 260 258 257 257 259 262 264 266 268 271 274 275 275 274 275 277 279 279 276 272 268 266 264 262 260 259 258 257 260 263 266 268 270 272 273 275 277 279 280 280 278 279 281
228 228 227 227 226 227 229 231 231 228 227 227 228 230 230 228 224 223 225 227 228 230 233 235 236 237 237 238 238 237 234 233 235 238 240 241 243 246 249 253 257 260 262 262 262 261 261 262 264 265 267 269 273 276 275 274 275 277 279 280 278 274 270 266 263 261 260 259 259 259 260 262 264 265 267 268 270 272 274 276 278 276 276 277 278
226 227 227 226 225 227 230 229 225 222 223 225 226 228 229 226 223 225 228 229 229 230 231 233 234 236 238 239 239 238 236 235 236 239 241 242 242 243 245 248 252 256 260 263 265 265 265 264 265 265 266 268 272 275 276 276 276 275 276 278 278 275 270 266 263 263 263 262 260 259 258 259 260 262 264 266 268 270 272 273 274 272 272 273 273
223 224 224 223 222 223 225 223 219 219 222 224 225 228 231 230 229 231 232 231 230 231 232 233 233 234 237 239 239 239 238 237 238 240 241 242 242 243 244 246 249 253 258 261 264 265 265 265 266 266 267 268 270 274 277 278 276 273 274 275 275 272 269 267 266 266 265 263 261 258 256 256 257 260 264 267 269 271 271 270 270 269 269 269 269
220 220 220 220 220 220 221 221 222 224 227 227 228 231 233 234 234 234 233 232 232 233 234 234 234 234 235 237 238 239 238 239 240 241 242 243 244 245 246 248 250 253 257 261 264 265 265 265 265 266 266 267 268 272 276 278 277 273 271 271 271 269 268 269 269 268 266 263 260 258 255 256 259 264 268 271 272 271 268 265 266 269 270 267 266
221 219 219 220 221 222 222 224 227 230 232 233 233 234 235 236 236 237 237 236 235 234 234 234 234 235 235 236 238 238 239 239 240 241 242 244 245 246 248 249 251 253 256 260 263 266 267 266 265 265 266 266 267 269 273 276 276 272 268 267 267 268 268 269 269 267 265 262 259 258 258 261 266 271 274 274 271 267 264 261 261 267 273 273 271
223 223 222 222 223 224 226 230 234 236 237 236 236 236 236 237 237 238 239 239 238 236 235 234 235 236 237 237 238 239 240 241 242 244 245 246 247 248 249 250 251 252 254 257 260 264 267 268 267 266 266 266 266 267 270 273 274 272 268 267 267 267 268 268 266 265 265 263 261 260 262 266 272 276 275 272 268 266 264 261 258 262 270 276 276
226 226 225 226 227 229 232 235 238 240 240 239 238 237 237 237 237 238 239 240 241 240 239 237 236 237 238 238 238 240 242 244 246 248 249 250 250 250 250 251 252 252 253 255 257 260 263 266 267 267 267 267 267 267 268 270 273 272 268 266 266 266 266 265 265 265 264 263 263 263 264 269 277 279 274 268 267 267 267 265 262 261 265 268 269
227 228 229 230 231 232 234 236 238 240 241 242 240 238 237 236 236 237 238 240 241 242 242 240 239 238 238 238 240 242 244 246 247 249 250 252 252 252 252 253 254 255 255 255 255 256 259 262 264 265 266 266 267 266 266 268 271 271 269 266 265 264 263 264 265 265 264 263 263 263 266 273 279 277 271 268 268 267 265 263 261 260 261 264 268
227 228 230 232 233 233 234 235 237 240 242 242 241 240 238 236 236 236 238 239 241 243 243 242 241 240 239 239 241 244 246 247 248 249 251 252 253 254 255 256 257 258 259 258 255 254 255 258 262 264 266 266 267 268 267 267 269 271 269 266 263 263 262 263 265 264 263 262 261 261 267 276 278 272 268 268 266 264 263 262 262 262 265 271 275
231 228 228 230 231 233 234 235 236 238 240 241 241 241 240 239 237 237 238 239 241 242 243 243 243 242 241 241 243 245 247 248 249 250 251 253 254 256 257 258 259 259 260 260 259 258 256 257 260 264 266 267 268 270 270 269 269 270 270 266 263 262 262 262 264 262 260 260 260 262 270 277 274 267 264 264 260 258 263 267 268 268 269 274 278
238 235 233 232 232 233 235 237 237 237 238 240 241 244 245 244 242 239 238 239 241 241 242 242 243 243 243 243 245 246 247 248 249 249 251 252 254 256 257 259 260 261 261 262 264 264 261 258 257 259 262 265 267 268 269 270 270 270 269 267 263 261 261 261 261 261 259 259 261 265 273 277 272 264 261 259 256 257 264 269 273 274 273 272 273
242 240 238 237 237 236 237 238 239 239 239 241 244 247 248 247 245 243 241 239 240 241 240 241 242 243 243 244 245 246 248 248 248 249 250 252 254 256 258 259 261 262 263 264 266 267 265 261 257 256 258 262 265 265 267 269 270 269 268 266 263 261 260 260 259 258 258 260 262 268 275 274 264 255 255 259 261 264 269 273 276 279 279 278 276
244 243 241 240 240 241 241 242 242 242 242 244 246 249 249 246 246 246 243 240 239 240 240 240 241 242 243 244 245 247 248 248 249 250 251 252 254 256 258 260 261 263 265 267 268 268 266 264 261 258 256 258 262 264 265 267 269 269 267 265 263 260 259 259 258 258 258 259 264 270 272 262 249 248 257 262 262 266 273 277 277 278 281 283 282
246 245 244 242 242 243 244 245 246 246 246 246 248 250 249 246 245 246 244 240 239 239 239 239 241 242 243 244 246 248 249 250 250 252 253 254 255 256 258 260 262 264 266 268 268 267 265 263 263 262 260 259 260 262 263 264 266 266 266 265 263 260 258 257 257 258 260 262 265 268 265 253 247 254 262 261 258 262 270 275 276 277 280 283 282
248 247 246 245 244 244 245 246 247 247 248 247 248 249 249 247 246 246 244 241 239 238 237 238 239 242 243 245 248 250 251 252 252 253 254 256 257 257 258 260 262 264 266 267 264 261 260 261 262 263 263 261 260 260 261 262 262 264 266 265 263 261 261 258 257 259 263 264 263 263 261 256 257 261 262 259 258 262 265 269 273 276 279 280 279
250 249 248 247 246 245 246 246 247 247 248 248 248 248 248 248 247 247 244 241 238 238 238 239 241 244 247 251 252 252 252 253 255 255 256 257 259 259 258 259 260 262 264 264 260 257 257 258 259 260 261 260 259 260 261 262 261 262 264 265 264 263 263 261 260 262 264 263 261 262 263 260 259 261 260 258 259 262 264 267 271 272 273 276 278
251 251 250 249 247 246 246 247 247 247 248 248 248 248 248 248 248 247 245 242 240 239 240 242 244 246 250 255 258 257 254 254 256 257 257 258 259 260 260 260 260 261 261 261 260 258 258 257 256 257 258 258 258 260 262 263 263 262 262 264 265 263 262 262 261 261 260 260 260 262 260 253 251 259 266 265 261 261 263 266 269 270 271 273 277
250 251 252 251 249 248 247 248 248 248 248 247 247 247 247 248 248 247 245 243 242 242 242 243 245 247 250 255 260 261 257 255 256 258 259 259 260 261 261 261 261 261 261 260 260 260 258 256 255 257 259 259 259 260 262 264 264 263 262 262 261 259 259 260 260 260 261 261 262 263 262 258 258 265 272 268 261 260 264 265 264 266 269 272 275
248 250 252 252 251 250 249 248 248 249 248 247 246 245 246 247 247 247 245 244 244 245 245 245 246 248 251 254 259 262 261 258 258 259 260 260 260 260 261 261 261 261 260 260 260 260 260 258 257 259 261 261 259 259 260 261 262 263 263 263 262 261 261 261 260 260 260 258 257 260 264 261 257 261 269 269 267 269 269 265 261 263 269 273 277
247 249 250 252 252 252 251 249 249 249 249 249 248 246 246 247 247 247 246 246 245 247 248 248 249 251 253 255 259 262 263 260 259 260 261 261 261 261 261 261 262 262 261 260 260 260 260 260 259 261 262 261 258 256 255 256 257 258 260 262 264 264 263 264 265 263 255 248 250 260 264 256 252 264 277 279 277 274 269 263 262 268 273 275 275
Height
5920 5922 5923 5925 5926 5927 5928 5929 5930 5932 5934 5936 5937 5938 5939 5940 5941 5942 5943 5944 5945 5946 5947 5947 5948 5948 5949 5949 5949 5949 5949 5950 5951 5952 5953 5954 5954 5955 5956 5957 5958 5959 5960 5961 5961 5962 5963 5963 5964 5964 5965 5965 5965 5966 5967 5967 5968 5968 5969 5969 5970 5971 5971 5972 5972 5973 5973 5974 5974 5974 5974 5974 5974 5974 5974 5973 5973 5973 5974 5974 5974 5974 5974 5973 5973
5918 5919 5921 5923 5924 5926 5926 5927 5929 5930 5932 5934 5935 5937 5938 5939 5940 5942 5942 5943 5944 5945 5946 5947 5948 5948 5948 5948 5949 5949 5949 5950 5950 5951 5952 5953 5953 5954 5955 5956 5957 5958 5959 5959 5960 5961 5961 5962 5963 5963 5963 5964 5964 5965 5966 5967 5967 5968 5968 5968 5969 5970 5970 5971 5971 5971 5972 5972 5973 5973 5973 5973 5973 5973 5973 5973 5973 5973 5973 5973 5973 5973 5973 5973 5972
5916 5917 5919 5920 5922 5923 5925 5926 5927 5929 5931 5932 5934 5935 5936 5938 5939 5940 5941 5942 5943 5944 5945 5946 5947 5948 5948 5948 5948 5948 5949 5949 5950 5950 5951 5952 5952 5953 5954 5955 5956 5957 5958 5959 5959 5960 5960 5961 5961 5962 5962 5963 5963 5964 5965 5966 5966 5967 5967 5967 5968 5969 5969 5970 5970 5970 5971 5971 5971 5971 5972 5972 5972 5972 5971 5971 5972 5972 5973 5973 5973 5973 5973 5972 5971
5914 5915 5917 5918 5919 5921 5923 5925 5926 5928 5929 5931 5932 5933 5934 5936 5937 5939 5940 5941 5942 5943 5944 5945 5946 5947 5947 5948 5948 5948 5948 5948 5949 5949 5950 5951 5952 5952 5953 5954 5955 5956 5957 5958 5958 5959 5960 5960 5960 5961 5961 5962 5962 5963 5964 5964 5965 5966 5966 5967 5967 5968 5968 5968 5969 5969 5969 5969 5970 5970 5970 5970 5970 5970 5970 5970 5970 5971 5972 5972 5972 5972 5971 5971 5970
5913 5914 5915 5916 5917 5919 5921 5923 5925 5926 5928 5929 5930 5931 5932 5934 5935 5937 5938 5939 5940 5942 5943 5943 5944 5945 5946 5946 5947 5947 5947 5948 5948 5949 5950 5950 5951 5952 5952 5953 5954 5954 5955 5957 5957 5958 5959 5960 5960 5960 5961 5961 5962 5962 5963 5963 5964 5965 5965 5966 5966 5967 5967 5967 5968 5968 5968 5968 5968 5968 5969 5969 5969 5969 5969 5969 5969 5970 5970 5970 5970 5970 5970 5969 5968
5911 5912 5912 5914 5915 5917 5919 5921 5923 5924 5926 5927 5927 5929 5930 5932 5933 5934 5936 5937 5939 5940 5941 5942 5943 5943 5944 5945 5946 5946 5947 5947 5948 5948 5949 5950 5950 5951 5952 5952 5953 5954 5954 5955 5956 5957 5958 5959 5959 5960 5960 5961 5961 5961 5962 5963 5964 5964 5965 5965 5966 5966 5966 5967 5967 5967 5967 5967 5967 5967 5967 5967 5967 5967 5968 5968 5968 5968 5969 5968 5968 5968 5967 5967 5967
5908 5909 5910 5912 5913 5914 5916 5918 5920 5922 5923 5924 5925 5926 5928 5929 5931 5932 5934 5935 5937 5938 5940 5941 5941 5942 5942 5943 5944 5945 5946 5946 5947 5948 5948 5949 5950 5950 5951 5951 5952 5953 5953 5954 5955 5956 5957 5958 5958 5959 5960 5960 5961 5961 5962 5962 5963 5964 5964 5965 5965 5965 5966 5966 5966 5966 5966 5966 5966 5966 5966 5966 5966 5966 5967 5967 5967 5967 5967 5967 5966 5966 5966 5965 5965
5905 5907 5908 5909 5911 5912 5913 5915 5917 5919 5920 5921 5922 5924 5926 5927 5929 5930 5931 5933 5935 5936 5937 5938 5939 5940 5941 5942 5942 5944 5945 5946 5946 5947 5948 5948 5949 5949 5950 5950 5951 5952 5953 5953 5954 5955 5956 5957 5957 5958 5959 5960 5960 5961 5962 5962 5963 5963 5964 5964 5964 5965 5965 5965 5965 5965 5965 5965 5965 5965 5965 5965 5965 5965 5965 5966 5966 5965 5965 5964 5964 5964 5964 5963 5962
5903 5904 5906 5907 5908 5909 5910 5912 5914 5915 5917 5919 5920 5922 5924 5925 5927 5928 5930 5931 5933 5934 5935 5936 5937 5938 5939 5940 5941 5942 5943 5944 5945 5946 5946 5947 5948 5948 5949 5949 5950 5951 5952 5953 5954 5955 5955 5956 5957 5957 5958 5959 5960 5960 5961 5961 5962 5962 5963 5963 5963 5964 5964 5964 5964 5964 5964 5964 5963 5963 5964 5964 5963 5963 5964 5964 5964 5964 5963 5962 5962 5962 5962 5961 5960
5900 5902 5904 5905 5905 5906 5907 5909 5910 5912 5914 5916 5917 5919 5921 5923 5924 5926 5927 5929 5930 5931 5932 5933 5935 5936 5937 5938 5939 5940 5942 5942 5943 5944 5945 5945 5946 5947 5948 5948 5949 5950 5951 5952 5953 5954 5955 5956 5956 5957 5957 5958 5959 5959 5960 5960 5961 5961 5961 5962 5962 5963 5963 5963 5963 5963 5963 5962 5962 5962 5963 5962 5961 5962 5962 5962 5962 5962 5961 5961 5960 5960 5960 5959 5959
5897 5899 5901 5902 5903 5905 5906 5907 5908 5909 5911 5912 5914 5916 5918 5919 5921 5923 5924 5926 5927 5928 5929 5931 5932 5934 5934 5935 5937 5938 5939 5940 5941 5942 5943 5944 5945 5946 5947 5947 5948 5949 5950 5951 5952 5953 5954 5955 5956 5956 5957 5957 5957 5958 5958 5959 5959 5960 5960 5961 5961 5961 5961 5961 5961 5961 5961 5961 5961 5961 5961 5961 5960 5960 5961 5961 5961 5960 5959 5959 5958 5958 5958 5957 5957
5894 5896 5898 5899 5901 5903 5904 5905 5906 5907 5908 5910 5911 5913 5914 5916 5918 5920 5921 5923 5924 5925 5927 5928 5930 5931 5932 5933 5934 5936 5937 5937 5938 5939 5940 5942 5943 5944 5945 5946 5947 5948 5949 5950 5950 5951 5952 5953 5954 5955 5956 5956 5956 5957 5957 5958 5958 5958 5958 5959 5959 5960 5960 5960 5959 5959 5959 5959 5959 5959 5959 5959 5959 5959 5959 5959 5959 5958 5958 5957 5956 5956 5955 5955 5954
5891 5893 5895 5896 5898 5900 5902 5903 5904 5905 5906 5907 5908 5910 5911 5913 5915 5916 5918 5919 5920 5922 5924 5925 5927 5928 5929 5930 5932 5933 5934 5935 5935 5936 5938 5939 5940 5942 5943 5944 5945 5946 5947 5948 5949 5949 5950 5951 5952 5953 5954 5954 5955 5956 5956 5956 5956 5957 5957 5957 5957 5958 5958 5958 5957 5957 5957 5957 5958 5958 5957 5957 5958 5957 5957 5957 5957 5956 5956 5955 5954 5954 5953 5952 5952
5888 5890 5891 5893 5894 5896 5898 5901 5902 5903 5904 5905 5906 5908 5909 5911 5912 5913 5915 5916 5918 5919 5921 5922 5924 5925 5926 5928 5929 5931 5932 5932 5933 5934 5935 5936 5938 5939 5940 5942 5943 5945 5946 5946 5947 5948 5949 5949 5950 5951 5951 5952 5953 5954 5954 5954 5954 5955 5955 5955 5955 5955 5955 5955 5955 5955 5955 5955 5956 5956 5955 5955 5956 5956 5955 5955 5955 5954 5953 5953 5952 5951 5950 5950 5949
5883 5886 5887 5889 5891 5893 5895 5898 5900 5901 5902 5903 5904 5906 5907 5908 5910 5911 5912 5914 5915 5916 5918 5919 5921 5922 5923 5925 5926 5928 5929 5930 5931 5932 5933 5934 5935 5936 5938 5939 5941 5942 5944 5945 5945 5946 5946 5947 5948 5948 5949 5950 5951 5951 5951 5952 5952 5952 5953 5953 5953 5953 5953 5953 5952 5953 5953 5954 5954 5954 5953 5953 5954 5954 5953 5953 5953 5952 5952 5951 5950 5949 5948 5948 5947
5879 5881 5883 5885 5887 5889 5892 5894 5896 5898 5900 5902 5903 5904 5905 5906 5907 5909 5910 5911 5912 5914 5915 5917 5918 5919 5920 5922 5923 5925 5926 5927 5928 5930 5931 5932 5933 5934 5935 5937 5938 5940 5941 5942 5943 5943 5944 5945 5945 5946 5947 5947 5948 5948 5948 5949 5949 5950 5950 5950 5950 5950 5950 5950 5950 5950 5951 5951 5952 5952 5952 5951 5952 5952 5951 5951 5950 5950 5950 5949 5948 5946 5946 5946 5945
5874 5877 5879 5882 5884 5886 5888 5891 5893 5895 5897 5899 5901 5903 5904 5904 5905 5906 5908 5909 5910 5911 5913 5914 5915 5916 5918 5919 5921 5923 5923 5924 5925 5927 5928 5929 5931 5932 5933 5935 5936 5937 5938 5939 5940 5941 5941 5942 5943 5943 5944 5945 5945 5945 5945 5946 5947 5947 5947 5947 5947 5948 5948 5947 5947 5948 5949 5949 5950 5950 5950 5949 5949 5949 5948 5948 5948 5947 5947 5947 5945 5944 5944 5944 5942
5869 5873 5875 5878 5880 5883 5885 5888 5890 5892 5894 5897 5899 5900 5901 5902 5903 5904 5906 5907 5908 5909 5910 5911 5913 5914 5916 5917 5919 5920 5921 5921 5923 5924 5926 5927 5928 5930 5931 5932 5933 5935 5936 5936 5937 5938 5939 5939 5940 5941 5942 5942 5942 5941 5942 5943 5944 5944 5944 5944 5945 5946 5945 5944 5944 5946 5946 5947 5947 5947 5947 5947 5946 5946 5945 5945 5945 5944 5944 5944 5943 5942 5942 5941 5940
5865 5867 5871 5874 5877 5879 5882 5884 5887 5889 5891 5894 5896 5897 5898 5899 5900 5902 5903 5905 5906 5907 5908 5910 5911 5912 5913 5915 5917 5918 5919 5919 5921 5922 5923 5924 5925 5927 5928 5929 5931 5932 5933 5933 5934 5935 5936 5936 5937 5938 5939 5939 5938 5938 5938 5940 5941 5941 5941 5942 5943 5943 5941 5940 5942 5943 5944 5944 5945 5945 5945 5944 5944 5943 5943 5942 5941 5941 5941 5941 5940 5940 5939 5939 5937
5858 5862 5866 5870 5873 5876 5878 5880 5883 5885 5888 5890 5892 5893 5894 5896 5897 5899 5901 5902 5903 5904 5906 5908 5909 5910 5911 5913 5914 5916 5917 5917 5918 5920 5920 5921 5922 5923 5924 5926 5928 5929 5929 5930 5931 5931 5932 5933 5934 5935 5935 5935 5934 5934 5934 5936 5938 5938 5938 5939 5941 5940 5938 5938 5940 5940 5940 5941 5942 5942 5942 5942 5941 5941 5940 5939 5938 5938 5938 5938 5938 5938 5937 5936 5935
5853 5859 5864 5867 5870 5873 5875 5878 5880 5882 5884 5886 5887 5889 5891 5893 5894 5896 5898 5899 5900 5902 5904 5905 5907 5908 5909 5911 5912 5914 5915 5915 5916 5917 5917 5918 5919 5919 5921 5923 5924 5924 5925 5926 5927 5928 5929 5930 5931 5931 5931 5931 5931 5930 5931 5932 5934 5934 5935 5937 5937 5936 5935 5936 5937 5937 5938 5939 5939 5939 5939 5938 5938 5937 5937 5936 5935 5935 5935 5935 5935 5935 5934 5933 5932
5852 5858 5862 5863 5866 5869 5872 5875 5877 5878 5880 5881 5883 5885 5887 5889 5891 5893 5895 5896 5898 5899 5901 5902 5904 5905 5907 5908 5910 5911 5912 5912 5913 5913 5914 5915 5915 5916 5918 5919 5920 5920 5921 5922 5924 5925 5925 5926 5926 5926 5927 5927 5928 5927 5927 5928 5930 5931 5932 5933 5933 5933 5932 5933 5934 5934 5935 5936 5936 5936 5935 5935 5934 5934 5933 5932 5932 5932 5932 5932 5931 5931 5930 5930 5929
5848 5853 5856 5858 5861 5864 5867 5870 5872 5874 5875 5877 5879 5882 5884 5885 5888 5889 5891 5893 5894 5896 5898 5899 5901 5903 5904 5906 5907 5908 5908 5909 5909 5910 5911 5911 5912 5913 5915 5916 5916 5916 5918 5919 5920 5921 5921 5922 5922 5922 5922 5923 5924 5924 5923 5924 5925 5927 5929 5929 5930 5930 5930 5930 5931 5932 5932 5933 5933 5933 5932 5931 5931 5930 5930 5929 5929 5929 5929 5929 5928 5927 5927 5926 5926
5843 5846 5849 5852 5855 5858 5861 5865 5867 5869 5871 5873 5875 5878 5880 5882 5884 5886 5887 5889 5891 5893 5895 5896 5898 5900 5901 5903 5904 5905 5906 5906 5906 5907 5908 5908 5909 5910 5912 5912 5912 5913 5914 5915 5916 5917 5917 5918 5918 5917 5917 5918 5919 5920 5919 5919 5921 5924 5925 5925 5926 5926 5927 5928 5928 5928 5929 5929 5930 5929 5928 5928 5927 5927 5926 5926 5926 5925 5925 5925 5924 5924 5924 5923 5923
5836 5839 5843 5847 5850 5853 5856 5859 5862 5864 5866 5868 5871 5874 5876 5877 5880 5882 5883 5885 5887 5890 5891 5893 5894 5896 5898 5899 5901 5902 5903 5903 5904 5904 5905 5905 5906 5907 5908 5908 5908 5909 5911 5912 5912 5913 5913 5913 5913 5912 5913 5914 5915 5916 5916 5916 5917 5919 5919 5920 5921 5922 5923 5924 5924 5924 5925 5925 5925 5925 5924 5923 5923 5923 5923 5923 5923 5922 5922 5921 5921 5920 5920 5919 5919
5828 5832 5836 5840 5844 5847 5851 5854 5856 5859 5861 5863 5866 5869 5871 5873 5875 5877 5879 5881 5883 5886 5887 5889 5890 5893 5894 5896 5897 5898 5899 5900 5902 5902 5903 5903 5903 5903 5903 5904 5904 5905 5907 5908 5908 5908 5908 5908 5908 5908 5909 5910 5911 5912 5912 5912 5912 5913 5914 5915 5917 5918 5918 5918 5919 5920 5921 5921 5921 5921 5920 5919 5919 5919 5920 5920 5919 5919 5918 5918 5917 5917 5916 5916 5915
5821 5826 5830 5834 5838 5841 5844 5847 5849 5853 5855 5858 5861 5864 5866 5868 5870 5873 5875 5877 5879 5881 5883 5884 5886 5888 5890 5892 5893 5894 5895 5897 5899 5900 5900 5900 5900 5899 5899 5899 5900 5901 5902 5904 5904 5903 5903 5903 5903 5904 5905 5906 5907 5909 5909 5908 5908 5908 5909 5910 5912 5913 5913 5913 5913 5915 5916 5917 5917 5916 5916 5915 5915 5916 5916 5916 5916 5915 5915 5914 5913 5913 5912 5912 5911
5815 5820 5825 5828 5831 5834 5837 5840 5843 5846 5849 5852 5855 5858 5860 5863 5865 5868 5871 5873 5874 5876 5878 5879 5881 5883 5885 5887 5888 5889 5891 5894 5896 5896 5895 5895 5895 5895 5895 5896 5896 5896 5896 5897 5897 5896 5897 5898 5900 5901 5902 5903 5905 5906 5906 5905 5904 5904 5905 5906 5907 5907 5908 5908 5908 5910 5911 5912 5912 5912 5912 5911 5911 5911 5911 5911 5911 5911 5910 5910 5909 5909 5908 5908 5907
5809 5813 5818 5821 5825 5828 5831 5833 5836 5840 5843 5845 5849 5852 5854 5857 5860 5863 5866 5868 5870 5872 5873 5874 5876 5878 5880 5882 5884 5886 5889 5892 5891 5889 5888 5889 5890 5890 5890 5891 5891 5891 5891 5890 5889 5889 5891 5894 5897 5898 5899 5900 5901 5902 5902 5901 5900 5900 5901 5901 5902 5903 5903 5903 5904 5905 5906 5906 5907 5908 5907 5907 5907 5907 5907 5907 5907 5906 5906 5906 5906 5905 5904 5904 5903
5803 5807 5811 5815 5819 5822 5825 5827 5830 5833 5836 5840 5843 5846 5849 5851 5854 5857 5861 5863 5865 5866 5868 5870 5872 5873 5874 5877 5879 5882 5885 5887 5885 5883 5883 5884 5885 5886 5886 5886 5885 5886 5886 5885 5884 5885 5888 5891 5892 5893 5894 5895 5896 5897 5897 5896 5895 5896 5897 5897 5898 5899 5898 5899 5899 5901 5901 5901 5902 5903 5902 5902 5902 5902 5902 5902 5902 5902 5902 5902 5901 5901 5901 5900 5900
5797 5801 5804 5808 5812 5816 5819 5821 5824 5827 5830 5834 5837 5840 5842 5845 5848 5852 5855 5857 5859 5861 5863 5865 5866 5867 5869 5872 5874 5877 5880 5881 5880 5879 5880 5881 5881 5882 5882 5881 5880 5879 5879 5879 5879 5882 5885 5887 5888 5888 5889 5890 5891 5891 5891 5890 5889 5891 5892 5893 5893 5894 5894 5894 5895 5895 5895 5896 5897 5897 5897 5898 5898 5898 5898 5898 5897 5897 5898 5897 5897 5897 5897 5896 5896
5791 5794 5797 5801 5804 5809 5812 5815 5818 5821 5824 5827 5830 5833 5836 5839 5842 5846 5849 5851 5852 5855 5857 5860 5861 5863 5864 5867 5869 5872 5875 5876 5876 5876 5876 5876 5877 5877 5877 5876 5874 5873 5872 5872 5874 5878 5881 5883 5883 5883 5884 5885 5886 5886 5885 5884 5884 5886 5886 5887 5887 5888 5888 5889 5888 5888 5889 5890 5892 5893 5893 5893 5893 5893 5893 5892 5893 5893 5893 5893 5893 5892 5892 5892 5892
5784 5787 5791 5794 5797 5801 5804 5807 5811 5814 5817 5821 5824 5827 5830 5833 5836 5839 5842 5844 5846 5849 5852 5854 5856 5858 5860 5862 5864 5867 5870 5871 5872 5872 5871 5871 5872 5872 5871 5870 5869 5867 5867 5868 5870 5873 5876 5877 5878 5878 5879 5880 5881 5881 5880 5879 5879 5880 5880 5881 5881 5882 5882 5882 5882 5882 5884 5886 5887 5887 5887 5887 5887 5887 5887 5887 5888 5888 5888 5888 5888 5888 5888 5887 5887
5779 5781 5784 5787 5791 5795 5798 5801 5804 5808 5812 5815 5818 5821 5825 5828 5831 5833 5836 5838 5841 5843 5846 5849 5851 5853 5854 5856 5858 5861 5864 5866 5866 5866 5866 5866 5866 5865 5865 5865 5864 5864 5865 5865 5866 5868 5870 5871 5872 5872 5873 5875 5877 5876 5876 5875 5874 5874 5874 5875 5875 5876 5876 5876 5877 5878 5880 5880 5881 5881 5881 5881 5881 5881 5881 5882 5883 5883 5883 5883 5883 5883 5882 5881 5880
5772 5775 5778 5782 5785 5788 5792 5795 5798 5802 5806 5809 5812 5815 5819 5822 5824 5827 5830 5832 5835 5838 5841 5843 5845 5847 5848 5850 5852 5854 5857 5859 5859 5860 5860 5860 5861 5861 5861 5861 5861 5862 5863 5863 5863 5863 5864 5866 5867 5867 5867 5870 5871 5872 5871 5870 5869 5869 5869 5869 5869 5869 5870 5871 5872 5874 5874 5874 5875 5875 5875 5875 5875 5876 5876 5877 5878 5878 5878 5878 5878 5878 5877 5874 5874
5765 5769 5772 5776 5779 5782 5786 5789 5792 5796 5800 5803 5806 5809 5812 5815 5818 5820 5823 5826 5828 5831 5834 5837 5839 5840 5841 5844 5846 5848 5850 5851 5851 5852 5853 5853 5854 5854 5855 5856 5858 5859 5860 5860 5860 5859 5859 5860 5862 5862 5862 5864 5866 5867 5866 5865 5865 5863 5863 5863 5863 5864 5865 5866 5867 5868 5868 5868 5868 5868 5869 5870 5871 5871 5872 5872 5872 5871 5871 5872 5873 5873 5871 5869 5870
5757 5761 5765 5769 5773 5776 5779 5782 5786 5789 5793 5796 5799 5802 5805 5808 5811 5814 5816 5819 5822 5824 5827 5830 5832 5833 5835 5839 5841 5842 5843 5843 5843 5844 5845 5847 5847 5848 5849 5851 5852 5853 5854 5855 5855 5855 5854 5855 5856 5857 5857 5858 5860 5861 5861 5860 5860 5858 5857 5857 5858 5859 5861 5861 5862 5862 5863 5862 5863 5863 5864 5865 5866 5866 5865 5865 5865 5865 5865 5866 5867 5866 5865 5866 5866
5749 5753 5758 5762 5766 5769 5773 5776 5779 5782 5786 5789 5792 5795 5798 5801 5804 5807 5809 5812 5815 5817 5820 5823 5826 5827 5830 5833 5835 5835 5836 5836 5837 5838 5840 5840 5841 5842 5843 5844 5844 5845 5846 5848 5848 5848 5849 5849 5850 5851 5852 5853 5855 5855 5856 5855 5854 5853 5852 5852 5852 5854 5855 5855 5856 5857 5857 5857 5857 5858 5859 5859 5860 5859 5859 5860 5860 5859 5859 5860 5859 5859 5860 5860 5860
5741 5746 5750 5754 5758 5762 5766 5769 5772 5775 5779 5782 5785 5788 5791 5794 5797 5800 5802 5805 5808 5810 5813 5816 5819 5821 5824 5827 5827 5827 5828 5829 5831 5833 5833 5833 5833 5835 5836 5837 5837 5838 5839 5840 5840 5841 5842 5842 5842 5844 5846 5848 5849 5849 5850 5849 5849 5848 5847 5847 5847 5848 5849 5850 5851 5852 5851 5852 5852 5852 5853 5854 5854 5854 5854 5854 5853 5853 5852 5852 5850 5851 5853 5853 5852
5734 5738 5743 5746 5750 5754 5759 5762 5765 5768 5772 5775 5778 5781 5784 5787 5790 5793 5795 5798 5801 5803 5806 5809 5812 5815 5818 5819 5820 5821 5822 5823 5825 5826 5826 5825 5826 5827 5828 5829 5830 5832 5832 5832 5832 5834 5835 5836 5836 5838 5840 5842 5843 5843 5843 5843 5843 5842 5842 5841 5841 5842 5843 5844 5845 5845 5845 5846 5845 5846 5847 5847 5847 5847 5848 5847 5847 5847 5846 5844 5844 5845 5847 5848 5846
5726 5730 5735 5739 5743 5747 5751 5755 5759 5762 5765 5768 5771 5774 5777 5780 5783 5785 5788 5791 5794 5796 5799 5802 5805 5808 5810 5812 5813 5814 5815 5817 5819 5819 5818 5818 5819 5821 5822 5822 5824 5825 5824 5823 5825 5829 5831 5830 5830 5832 5834 5835 5836 5836 5836 5836 5837 5836 5836 5836 5836 5836 5837 5838 5839 5839 5839 5839 5838 5839 5841 5842 5841 5841 5841 5840 5841 5842 5841 5839 5838 5840 5842 5842 5841
5717 5722 5727 5731 5735 5739 5743 5748 5752 5755 5759 5762 5765 5768 5771 5773 5776 5778 5781 5784 5787 5790 5793 5795 5798 5801 5803 5805 5807 5807 5808 5810 5811 5812 5812 5812 5813 5814 5815 5816 5817 5818 5816 5815 5818 5823 5825 5823 5823 5824 5826 5827 5829 5829 5828 5830 5831 5830 5829 5829 5829 5830 5831 5832 5833 5833 5833 5833 5832 5833 5835 5836 5835 5834 5833 5833 5835 5836 5835 5834 5832 5833 5835 5837 5837
5709 5714 5719 5723 5728 5732 5736 5740 5744 5748 5751 5754 5758 5761 5764 5767 5769 5771 5774 5777 5780 5783 5786 5789 5792 5794 5796 5798 5799 5800 5800 5802 5804 5804 5805 5806 5807 5807 5808 5809 5810 5810 5809 5808 5811 5814 5816 5816 5817 5819 5819 5820 5821 5821 5821 5822 5823 5823 5822 5822 5823 5824 5825 5825 5826 5826 5827 5826 5826 5827 5828 5828 5828 5827 5827 5827 5828 5828 5827 5828 5828 5826 5826 5828 5829
5700 5705 5710 5715 5720 5724 5728 5732 5736 5740 5743 5747 5750 5754 5757 5760 5762 5764 5767 5770 5773 5777 5780 5782 5785 5787 5789 5791 5792 5793 5793 5795 5796 5796 5797 5799 5800 5800 5801 5802 5802 5803 5803 5803 5804 5806 5806 5807 5809 5811 5812 5814 5814 5814 5814 5815 5815 5814 5814 5815 5816 5817 5818 5818 5819 5819 5820 5820 5820 5820 5820 5820 5820 5820 5821 5822 5822 5820 5818 5819 5821 5822 5821 5820 5819
5692 5697 5701 5707 5711 5716 5720 5724 5728 5732 5736 5739 5742 5746 5750 5753 5756 5758 5760 5763 5767 5770 5773 5776 5778 5780 5783 5784 5786 5786 5787 5787 5788 5789 5790 5791 5793 5793 5793 5794 5795 5796 5796 5797 5797 5798 5798 5799 5800 5800 5802 5805 5806 5806 5805 5804 5805 5805 5806 5807 5808 5810 5811 5812 5811 5812 5813 5813 5813 5813 5813 5813 5814 5814 5814 5815 5815 5814 5812 5812 5813 5814 5814 5813 5812
5683 5688 5693 5698 5703 5707 5711 5716 5720 5724 5728 5731 5734 5738 5742 5745 5748 5751 5753 5756 5760 5763 5766 5768 5771 5773 5775 5777 5779 5780 5780 5780 5781 5782 5782 5783 5784 5785 5786 5787 5788 5788 5789 5790 5789 5789 5790 5791 5791 5791 5792 5794 5795 5794 5793 5793 5795 5798 5799 5799 5800 5802 5804 5804 5805 5806 5806 5805 5805 5805 5806 5807 5807 5808 5808 5807 5807 5807 5806 5806 5806 5806 5806 5806 5806
5673 5679 5684 5690 5694 5698 5703 5707 5712 5716 5720 5724 5727 5730 5734 5737 5741 5744 5746 5749 5752 5755 5758 5761 5763 5766 5767 5769 5771 5773 5773 5773 5773 5774 5775 5776 5777 5778 5779 5780 5780 5781 5782 5782 5782 5782 5783 5783 5783 5783 5784 5785 5785 5785 5784 5785 5788 5791 5792 5792 5793 5795 5795 5795 5795 5797 5797 5796 5795 5796 5798 5799 5800 5801 5801 5801 5800 5800 5800 5800 5800 5800 5800 5800 5799
5664 5669 5675 5680 5685 5690 5694 5699 5703 5708 5712 5716 5719 5722 5725 5729 5733 5736 5739 5742 5744 5747 5750 5753 5755 5757 5759 5761 5763 5765 5766 5766 5765 5766 5766 5768 5769 5770 5771 5772 5772 5773 5775 5776 5776 5776 5776 5776 5776 5777 5778 5778 5778 5779 5779 5779 5780 5782 5784 5786 5786 5787 5786 5786 5786 5787 5787 5786 5786 5788 5790 5792 5793 5794 5795 5795 5794 5793 5793 5793 5793 5793 5793 5793 5792
5656 5660 5665 5670 5676 5681 5686 5690 5694 5699 5704 5708 5712 5715 5718 5721 5725 5728 5731 5734 5737 5739 5742 5744 5747 5749 5751 5753 5755 5756 5757 5758 5757 5758 5758 5759 5761 5762 5762 5763 5764 5766 5767 5768 5769 5769 5769 5769 5771 5771 5771 5771 5771 5772 5772 5771 5771 5772 5775 5777 5779 5780 5780 5780 5780 5779 5779 5778 5779 5782 5784 5785 5786 5787 5788 5788 5787 5786 5785 5785 5785 5785 5785 5785 5784
5649 5653 5657 5661 5665 5671 5676 5681 5686 5690 5695 5699 5703 5707 5710 5713 5717 5720 5723 5727 5729 5732 5735 5737 5739 5741 5743 5745 5746 5748 5748 5749 5749 5750 5750 5751 5752 5752 5753 5754 5755 5756 5758 5759 5760 5760 5761 5762 5763 5763 5762 5761 5761 5762 5763 5764 5763 5764 5765 5765 5767 5770 5770 5768 5767 5767 5767 5767 5770 5774 5775 5775 5776 5779 5780 5780 5779 5777 5776 5776 5776 5776 5775 5775 5774
5641 5645 5649 5652 5656 5661 5667 5673 5677 5682 5686 5690 5694 5698 5702 5705 5708 5712 5716 5719 5722 5724 5727 5729 5731 5734 5736 5737 5738 5739 5740 5740 5741 5742 5743 5744 5744 5743 5744 5745 5746 5747 5747 5748 5750 5751 5752 5752 5754 5755 5755 5754 5753 5754 5756 5756 5757 5759 5759 5757 5757 5759 5759 5757 5756 5757 5757 5757 5761 5765 5767 5766 5766 5768 5769 5770 5770 5768 5767 5767 5767 5766 5765 5765 5764